Terminal Aerodrome Forecast
Issued by NWS

Current Version | Previous Version | Text Only | Print | Product List | Glossary Off
Versions: 1 2 3 4 5 6 7 8 9 10 11 12 13 14 15 16

000
FTUS41 KILN 191510 AAA
TAFLUK
TAF AMD
KLUK 191510Z 1915/2012 34014G24KT P6SM BKN026
     FM191800 33014G24KT P6SM BKN035
     FM192000 32012G18KT P6SM SCT250
     FM200000 34006KT P6SM SKC
     FM200800 01004KT P6SM SKC=

USA.gov is the U.S. government's official web portal to all federal, state and local government web resources and services.